Time,TemperatureF,DewpointF,PressureIn,WindDirection,WindDirectionDegrees,WindSpeedMPH,WindSpeedGustMPH,Humidity,HourlyPrecipIn,Conditions,Clouds,dailyrainin,SolarRadiationWatts/m^2,SoftwareType,DateUTC
2013-07-21 00:01:00,69.0,32.0,-100.00,SE,126,6.0,14.0,25,0.00,,,0.00,0.000000,,2013-07-21 06:01:00,
2013-07-21 00:11:00,69.0,32.0,-100.00,SE,126,6.0,14.0,25,0.00,,,0.00,0.000000,,2013-07-21 06:11:00,
2013-07-21 00:43:00,61.0,36.0,-100.00,East,94,4.0,9.0,40,0.00,,,0.00,0.000000,,2013-07-21 06:43:00,
2013-07-21 00:52:00,61.0,36.0,-100.00,East,94,4.0,9.0,40,0.00,,,0.00,0.000000,,2013-07-21 06:52:00,
2013-07-21 01:01:00,61.0,36.0,-100.00,East,94,4.0,9.0,40,0.00,,,0.00,0.000000,,2013-07-21 07:01:00,
2013-07-21 01:11:00,61.0,36.0,-100.00,East,94,4.0,9.0,40,0.00,,,0.00,0.000000,,2013-07-21 07:11:00,
2013-07-21 01:43:00,58.0,42.0,-100.00,WSW,246,4.0,10.0,55,0.00,,,0.00,0.000000,,2013-07-21 07:43:00,
2013-07-21 01:53:00,58.0,42.0,-100.00,WSW,246,4.0,10.0,55,0.00,,,0.00,0.000000,,2013-07-21 07:53:00,
2013-07-21 02:01:00,58.0,42.0,-100.00,WSW,246,4.0,10.0,55,0.00,,,0.00,0.000000,,2013-07-21 08:01:00,
2013-07-21 02:11:00,58.0,42.0,-100.00,WSW,246,4.0,10.0,55,0.00,,,0.00,0.000000,,2013-07-21 08:11:00,
2013-07-21 02:43:00,54.0,43.0,-100.00,WSW,244,3.0,7.0,65,0.00,,,0.00,0.000000,,2013-07-21 08:43:00,
2013-07-21 02:52:00,54.0,43.0,-100.00,WSW,244,3.0,7.0,65,0.00,,,0.00,0.000000,,2013-07-21 08:52:00,
2013-07-21 03:02:00,54.0,43.0,-100.00,WSW,244,3.0,7.0,65,0.00,,,0.00,0.000000,,2013-07-21 09:02:00,
2013-07-21 03:11:00,54.0,43.0,-100.00,WSW,244,3.0,7.0,65,0.00,,,0.00,0.000000,,2013-07-21 09:11:00,
2013-07-21 03:32:00,51.0,43.0,-100.00,SSE,165,2.0,5.0,74,0.00,,,0.00,0.000000,,2013-07-21 09:32:00,
2013-07-21 03:42:00,51.0,43.0,-100.00,SSE,165,2.0,5.0,74,0.00,,,0.00,0.000000,,2013-07-21 09:42:00,
2013-07-21 03:52:00,51.0,43.0,-100.00,SSE,165,2.0,5.0,74,0.00,,,0.00,0.000000,,2013-07-21 09:52:00,
2013-07-21 04:01:00,51.0,43.0,-100.00,SSE,165,2.0,5.0,74,0.00,,,0.00,0.000000,,2013-07-21 10:01:00,
2013-07-21 04:11:00,51.0,43.0,-100.00,SSE,165,2.0,5.0,74,0.00,,,0.00,0.000000,,2013-07-21 10:11:00,
2013-07-21 04:43:00,48.0,43.0,-100.00,SE,137,2.0,4.0,84,0.00,,,0.00,0.000000,,2013-07-21 10:43:00,
2013-07-21 04:52:00,48.0,43.0,-100.00,SE,137,2.0,4.0,84,0.00,,,0.00,0.000000,,2013-07-21 10:52:00,
2013-07-21 05:02:00,48.0,43.0,-100.00,SE,137,2.0,4.0,84,0.00,,,0.00,0.000000,,2013-07-21 11:02:00,
2013-07-21 05:11:00,48.0,43.0,-100.00,SE,137,2.0,4.0,84,0.00,,,0.00,0.000000,,2013-07-21 11:11:00,
2013-07-21 05:43:00,46.0,43.0,-100.00,South,176,3.0,6.0,89,0.00,,,0.00,0.000000,,2013-07-21 11:43:00,
2013-07-21 06:01:00,46.0,43.0,-100.00,South,176,3.0,6.0,89,0.00,,,0.00,0.000000,,2013-07-21 12:01:00,
2013-07-21 06:11:00,46.0,43.0,-100.00,South,176,3.0,6.0,89,0.00,,,0.00,0.000000,,2013-07-21 12:11:00,
2013-07-21 06:43:00,45.0,42.0,-100.00,ENE,62,2.0,4.0,88,0.00,,,0.00,2.000000,,2013-07-21 12:43:00,
2013-07-21 06:53:00,45.0,42.0,-100.00,ENE,62,2.0,4.0,88,0.00,,,0.00,2.000000,,2013-07-21 12:53:00,
2013-07-21 07:43:00,51.0,46.0,-100.00,SW,221,1.0,4.0,83,0.00,,,0.00,46.000000,,2013-07-21 13:43:00,
2013-07-21 07:53:00,51.0,46.0,-100.00,SW,221,1.0,4.0,83,0.00,,,0.00,46.000000,,2013-07-21 13:53:00,
2013-07-21 08:01:00,51.0,46.0,-100.00,SW,221,1.0,4.0,83,0.00,,,0.00,46.000000,,2013-07-21 14:01:00,
2013-07-21 08:11:00,51.0,46.0,-100.00,SW,221,1.0,4.0,83,0.00,,,0.00,46.000000,,2013-07-21 14:11:00,
2013-07-21 08:43:00,60.0,45.0,-100.00,South,179,3.0,5.0,57,0.00,,,0.00,200.000000,,2013-07-21 14:43:00,
2013-07-21 08:53:00,60.0,45.0,-100.00,South,179,3.0,5.0,57,0.00,,,0.00,200.000000,,2013-07-21 14:53:00,
2013-07-21 09:02:00,60.0,45.0,-100.00,South,179,3.0,5.0,57,0.00,,,0.00,200.000000,,2013-07-21 15:02:00,
2013-07-21 09:11:00,60.0,45.0,-100.00,South,179,3.0,5.0,57,0.00,,,0.00,200.000000,,2013-07-21 15:11:00,
2013-07-21 09:53:00,69.0,40.0,-100.00,South,189,4.0,6.0,35,0.00,,,0.00,403.000000,,2013-07-21 15:53:00,
2013-07-21 10:01:00,69.0,40.0,-100.00,South,189,4.0,6.0,35,0.00,,,0.00,403.000000,,2013-07-21 16:01:00,
2013-07-21 10:11:00,69.0,40.0,-100.00,South,189,4.0,6.0,35,0.00,,,0.00,403.000000,,2013-07-21 16:11:00,
2013-07-21 10:52:00,76.0,41.0,-100.00,SSE,163,4.0,8.0,29,0.00,,,0.00,610.000000,,2013-07-21 16:52:00,
2013-07-21 11:02:00,76.0,41.0,-100.00,SSE,163,4.0,8.0,29,0.00,,,0.00,610.000000,,2013-07-21 17:02:00,
2013-07-21 11:11:00,76.0,41.0,-100.00,SSE,163,4.0,8.0,29,0.00,,,0.00,610.000000,,2013-07-21 17:11:00,
2013-07-21 12:01:00,82.0,41.0,-100.00,NE,55,3.0,7.0,23,0.00,,,0.00,791.000000,,2013-07-21 18:01:00,
2013-07-21 12:11:00,82.0,41.0,-100.00,NE,55,3.0,7.0,23,0.00,,,0.00,791.000000,,2013-07-21 18:11:00,
2013-07-21 12:43:00,86.0,45.0,-100.00,NW,322,3.0,6.0,24,0.00,,,0.00,940.000000,,2013-07-21 18:43:00,
2013-07-21 12:52:00,86.0,45.0,-100.00,NW,322,3.0,6.0,24,0.00,,,0.00,940.000000,,2013-07-21 18:52:00,
2013-07-21 13:01:00,86.0,45.0,-100.00,NW,322,3.0,6.0,24,0.00,,,0.00,940.000000,,2013-07-21 19:01:00,
2013-07-21 13:11:00,86.0,45.0,-100.00,NW,322,3.0,6.0,24,0.00,,,0.00,940.000000,,2013-07-21 19:11:00,
2013-07-21 13:42:00,92.0,38.0,-100.00,West,262,3.0,6.0,15,0.00,,,0.00,1032.000000,,2013-07-21 19:42:00,
2013-07-21 13:52:00,92.0,38.0,-100.00,West,262,3.0,6.0,15,0.00,,,0.00,1032.000000,,2013-07-21 19:52:00,
2013-07-21 14:01:00,92.0,38.0,-100.00,West,262,3.0,6.0,15,0.00,,,0.00,1032.000000,,2013-07-21 20:01:00,
2013-07-21 14:11:00,92.0,38.0,-100.00,West,262,3.0,6.0,15,0.00,,,0.00,1032.000000,,2013-07-21 20:11:00,
2013-07-21 14:32:00,93.0,37.0,-100.00,ESE,118,5.0,9.0,14,0.00,,,0.00,1065.000000,,2013-07-21 20:32:00,
2013-07-21 14:43:00,93.0,37.0,-100.00,ESE,118,5.0,9.0,14,0.00,,,0.00,1065.000000,,2013-07-21 20:43:00,
2013-07-21 14:52:00,93.0,37.0,-100.00,ESE,118,5.0,9.0,14,0.00,,,0.00,1065.000000,,2013-07-21 20:52:00,
2013-07-21 15:01:00,93.0,37.0,-100.00,ESE,118,5.0,9.0,14,0.00,,,0.00,1065.000000,,2013-07-21 21:01:00,
2013-07-21 15:11:00,93.0,37.0,-100.00,ESE,118,5.0,9.0,14,0.00,,,0.00,1065.000000,,2013-07-21 21:11:00,
2013-07-21 15:43:00,94.0,34.0,-100.00,East,101,5.0,9.0,12,0.00,,,0.00,1054.000000,,2013-07-21 21:43:00,
2013-07-21 15:52:00,94.0,34.0,-100.00,East,101,5.0,9.0,12,0.00,,,0.00,1054.000000,,2013-07-21 21:52:00,
2013-07-21 16:01:00,94.0,34.0,-100.00,East,101,5.0,9.0,12,0.00,,,0.00,1054.000000,,2013-07-21 22:01:00,
2013-07-21 16:11:00,94.0,34.0,-100.00,East,101,5.0,9.0,12,0.00,,,0.00,1054.000000,,2013-07-21 22:11:00,
2013-07-21 16:43:00,96.0,35.0,-100.00,ENE,57,5.0,11.0,12,0.00,,,0.00,979.000000,,2013-07-21 22:43:00,
2013-07-21 16:52:00,96.0,35.0,-100.00,ENE,57,5.0,11.0,12,0.00,,,0.00,979.000000,,2013-07-21 22:52:00,
2013-07-21 17:01:00,96.0,35.0,-100.00,ENE,57,5.0,11.0,12,0.00,,,0.00,979.000000,,2013-07-21 23:01:00,
2013-07-21 17:11:00,96.0,35.0,-100.00,ENE,57,5.0,11.0,12,0.00,,,0.00,979.000000,,2013-07-21 23:11:00,
2013-07-21 17:43:00,98.0,37.0,-100.00,SE,136,3.0,10.0,12,0.00,,,0.00,860.000000,,2013-07-21 23:43:00,
2013-07-21 17:53:00,98.0,37.0,-100.00,SE,136,3.0,10.0,12,0.00,,,0.00,860.000000,,2013-07-21 23:53:00,
2013-07-21 18:01:00,98.0,37.0,-100.00,SE,136,3.0,10.0,12,0.00,,,0.00,860.000000,,2013-07-22 00:01:00,
2013-07-21 18:11:00,98.0,37.0,-100.00,SE,136,3.0,10.0,12,0.00,,,0.00,860.000000,,2013-07-22 00:11:00,
2013-07-21 18:42:00,96.0,33.0,-100.00,East,86,5.0,9.0,11,0.00,,,-99.99,683.000000,,2013-07-22 00:42:00,
2013-07-21 18:53:00,96.0,33.0,-100.00,East,86,5.0,9.0,11,0.00,,,-99.99,683.000000,,2013-07-22 00:53:00,
2013-07-21 19:02:00,96.0,33.0,-100.00,East,86,5.0,9.0,11,0.00,,,-99.99,683.000000,,2013-07-22 01:02:00,
2013-07-21 19:11:00,96.0,33.0,-100.00,East,86,5.0,9.0,11,0.00,,,-99.99,683.000000,,2013-07-22 01:11:00,
2013-07-21 19:42:00,94.0,31.0,-100.00,NE,48,3.0,8.0,11,0.00,,,0.00,479.000000,,2013-07-22 01:42:00,
2013-07-21 19:52:00,94.0,31.0,-100.00,NE,48,3.0,8.0,11,0.00,,,0.00,479.000000,,2013-07-22 01:52:00,
2013-07-21 20:02:00,94.0,31.0,-100.00,NE,48,3.0,8.0,11,0.00,,,0.00,479.000000,,2013-07-22 02:02:00,
2013-07-21 20:11:00,94.0,31.0,-100.00,NE,48,3.0,8.0,11,0.00,,,0.00,479.000000,,2013-07-22 02:11:00,
2013-07-21 20:32:00,87.0,28.0,-100.00,WNW,282,4.0,12.0,12,0.00,,,0.00,271.000000,,2013-07-22 02:32:00,
2013-07-21 20:43:00,87.0,28.0,-100.00,WNW,282,4.0,12.0,12,0.00,,,0.00,271.000000,,2013-07-22 02:43:00,
2013-07-21 20:52:00,87.0,28.0,-100.00,WNW,282,4.0,12.0,12,0.00,,,0.00,271.000000,,2013-07-22 02:52:00,
2013-07-21 21:01:00,87.0,28.0,-100.00,WNW,282,4.0,12.0,12,0.00,,,0.00,271.000000,,2013-07-22 03:01:00,
2013-07-21 21:11:00,87.0,28.0,-100.00,WNW,282,4.0,12.0,12,0.00,,,0.00,271.000000,,2013-07-22 03:11:00,
2013-07-21 21:43:00,77.0,33.0,-100.00,SSW,201,2.0,8.0,20,0.00,,,0.00,62.000000,,2013-07-22 03:43:00,
2013-07-21 22:01:00,77.0,33.0,-100.00,SSW,201,2.0,8.0,20,0.00,,,0.00,62.000000,,2013-07-22 04:01:00,
2013-07-21 22:11:00,77.0,33.0,-100.00,SSW,201,2.0,8.0,20,0.00,,,0.00,62.000000,,2013-07-22 04:11:00,
2013-07-21 22:33:00,69.0,39.0,-100.00,SE,141,6.0,9.0,33,0.00,,,0.00,2.000000,,2013-07-22 04:33:00,